period_start,C,m1,H,J0,J1,J2,J3,J4,J5,JA,JB,JC,JD,JJ,JK,JN,#
2017-08-31 00:02:56,0.00,0.06,0.00,24.32,28.89,31.66,13.64,44.55,1004.75,2025.06,3553.99,3055.04,3499.04,599.44,585.99,8.79,0000 0000 0000 0000 000000
2017-08-31 00:07:58,0.03,0.06,0.00,24.29,28.85,31.62,13.64,44.67,1004.71,2025.49,3553.99,3055.51,3499.42,599.57,586.11,8.84,0000 0000 0000 0000 000000
2017-08-31 00:12:59,0.01,0.06,0.00,24.27,28.81,31.59,13.75,44.56,1004.70,2025.96,3554.01,3055.90,3499.94,600.09,586.63,8.89,0000 0000 0000 0000 000000
2017-08-31 00:18:00,-0.00,0.06,0.00,24.24,28.77,31.48,13.72,44.47,1004.79,2025.99,3554.09,3055.98,3499.99,600.15,586.83,8.94,0000 0000 0000 0000 000000
2017-08-31 00:23:02,-0.00,0.06,0.00,24.22,28.73,31.43,13.74,44.50,1004.85,2025.99,3554.11,3055.99,3499.99,599.76,586.44,8.99,0000 0000 0000 0000 000000
2017-08-31 00:28:03,-0.00,0.06,0.00,24.19,28.70,31.40,13.78,44.68,1004.86,2026.06,3554.68,3056.01,3500.02,599.84,586.72,9.04,0000 0000 0000 0000 000000
2017-08-31 00:33:05,0.04,0.06,0.00,24.16,28.66,31.35,13.73,44.58,1004.90,2026.55,3554.95,3056.08,3500.18,599.91,586.65,9.09,0000 0000 0000 0000 000000
2017-08-31 00:38:06,0.00,0.06,0.00,24.12,28.62,31.41,13.72,44.42,1005.14,2026.94,3554.98,3056.45,3500.70,600.01,587.19,9.14,0000 0000 0000 0000 000000
2017-08-31 00:43:07,-0.01,0.06,0.00,24.08,28.59,31.36,13.69,44.26,1005.35,2026.99,3554.99,3056.95,3500.97,599.91,587.21,9.20,0000 0000 0000 0000 000000
2017-08-31 00:48:08,0.00,0.06,0.00,24.05,28.56,31.30,13.69,44.12,1005.39,2027.00,3555.01,3056.99,3500.99,599.92,587.31,9.25,0000 0000 0000 0000 000000
2017-08-31 00:53:09,0.01,0.06,0.00,24.02,28.52,31.27,13.68,44.30,1005.39,2027.06,3555.02,3056.99,3501.01,599.86,587.35,9.30,0000 0000 0000 0000 000000
2017-08-31 00:58:10,0.02,0.06,0.00,23.99,28.49,31.26,13.72,44.17,1005.39,2027.24,3555.17,3057.01,3501.14,599.45,586.95,9.35,0000 0000 0000 0000 000000
2017-08-31 01:03:12,0.03,0.06,0.00,23.96,28.46,31.19,13.61,43.99,1005.40,2027.82,3555.46,3057.11,3501.62,599.38,586.94,9.40,0000 0000 0000 0000 000000
2017-08-31 01:08:13,-0.02,0.06,0.00,23.93,28.42,31.15,13.75,43.82,1005.39,2027.98,3555.89,3057.74,3501.98,599.45,587.04,9.45,0000 0000 0000 0000 000000
2017-08-31 01:13:14,0.00,0.06,0.00,23.91,28.39,31.15,13.82,43.98,1005.39,2027.99,3555.98,3057.97,3501.99,600.29,588.04,9.50,0000 0000 0000 0000 000000
2017-08-31 01:18:15,0.00,0.06,0.00,23.89,28.36,31.12,13.72,43.78,1005.39,2028.00,3555.98,3057.99,3501.99,599.68,587.37,9.55,0000 0000 0000 0000 000000
2017-08-31 01:23:16,0.00,0.06,0.00,23.89,28.33,31.09,13.67,43.89,1005.40,2028.01,3555.99,3057.99,3502.00,599.35,587.06,9.60,0000 0000 0000 0000 000000
2017-08-31 01:28:18,0.03,0.06,0.00,23.91,28.31,31.06,13.71,43.80,1005.39,2028.21,3555.99,3057.99,3502.06,599.89,587.36,9.65,0000 0000 0000 0000 000000
2017-08-31 01:33:19,0.03,0.07,0.00,23.90,28.28,31.05,13.71,43.64,1005.39,2028.68,3555.99,3058.04,3502.33,599.86,587.50,9.70,0000 0000 0000 0000 000000
2017-08-31 01:38:21,0.01,0.07,0.00,23.90,28.26,31.03,13.76,44.06,1005.39,2028.93,3555.99,3058.21,3502.64,600.06,587.73,9.75,0000 0000 0000 0000 000000
2017-08-31 01:43:22,-0.01,0.07,0.00,23.90,28.24,31.02,13.73,43.91,1005.38,2028.99,3556.02,3058.71,3502.93,599.63,587.25,9.80,0000 0000 0000 0000 000000
2017-08-31 01:48:23,0.00,0.07,0.00,23.89,28.22,31.01,13.71,43.96,1005.37,2028.99,3556.01,3058.87,3502.96,600.06,587.73,9.85,0000 0000 0000 0000 000000
2017-08-31 01:53:24,0.00,0.07,0.00,23.88,28.20,30.99,13.79,44.10,1005.37,2028.99,3556.07,3058.95,3502.99,599.80,587.55,9.90,0000 0000 0000 0000 000000
2017-08-31 01:58:26,0.00,0.07,0.00,23.87,28.18,30.99,13.76,44.05,1005.36,2029.00,3556.10,3058.98,3502.99,600.02,587.67,9.95,0000 0000 0000 0000 000000
2017-08-31 02:03:27,-0.00,0.07,0.00,23.87,28.17,31.00,13.80,44.02,1005.34,2029.01,3556.15,3058.99,3502.99,600.33,588.04,10.00,0000 0000 0000 0000 000000
2017-08-31 02:08:28,0.00,0.07,0.00,23.87,28.15,30.98,13.67,44.08,1005.20,2029.04,3556.27,3058.99,3503.00,599.91,587.52,10.05,0000 0000 0000 0000 000000
2017-08-31 02:13:29,0.02,0.07,0.00,23.86,28.14,30.96,13.64,43.93,1005.30,2029.19,3556.13,3058.99,3503.00,599.65,587.46,10.10,0000 0000 0000 0000 000000
2017-08-31 02:18:30,0.03,0.07,0.00,23.85,28.12,30.95,13.67,43.84,1005.29,2029.58,3556.04,3058.99,3503.00,599.40,587.12,10.15,0000 0000 0000 0000 000000
2017-08-31 02:23:31,0.02,0.07,0.00,23.85,28.11,30.93,13.65,43.92,1005.28,2029.77,3556.01,3058.99,3503.00,600.10,587.80,10.20,0000 0000 0000 0000 000000
2017-08-31 02:28:33,0.00,0.07,0.00,23.85,28.10,30.93,13.70,43.84,1005.33,2029.89,3556.01,3058.99,3503.00,599.86,587.54,10.25,0000 0000 0000 0000 000000
2017-08-31 02:33:34,0.00,0.07,0.00,23.83,28.08,30.93,13.79,44.08,1005.38,2029.98,3556.00,3059.00,3503.00,599.99,587.84,10.30,0000 0000 0000 0000 000000
2017-08-31 02:38:35,-0.00,0.07,0.00,23.82,28.07,30.91,13.65,43.85,1005.38,2029.97,3556.00,3059.00,3503.00,599.66,587.49,10.35,0000 0000 0000 0000 000000
2017-08-31 02:43:36,-0.00,0.07,0.00,23.83,28.06,30.91,13.65,44.03,1005.38,2029.99,3556.00,3059.00,3503.00,599.67,587.58,10.40,0000 0000 0000 0000 000000
2017-08-31 02:48:38,0.00,0.07,0.00,23.83,28.05,30.88,13.73,44.13,1005.35,2029.99,3556.00,3059.00,3503.00,599.95,587.71,10.45,0000 0000 0000 0000 000000
2017-08-31 02:53:39,0.00,0.07,0.00,23.82,28.05,30.85,13.74,43.92,1005.37,2029.99,3555.99,3059.00,3502.99,599.99,587.72,10.50,0000 0000 0000 0000 000000
2017-08-31 02:58:41,0.00,0.07,0.00,23.82,28.03,30.85,13.76,43.89,1005.37,2029.99,3555.98,3059.00,3502.99,600.19,587.95,10.55,0000 0000 0000 0000 000000
2017-08-31 03:03:42,0.00,0.07,0.00,23.82,28.02,30.81,13.78,44.01,1005.38,2029.99,3555.99,3059.00,3502.99,600.10,587.99,10.60,0000 0000 0000 0000 000000
2017-08-31 03:08:43,0.00,0.07,0.00,23.82,28.02,30.77,13.76,44.02,1005.37,2029.99,3555.99,3059.00,3502.99,600.22,588.02,10.65,0000 0000 0000 0000 000000
2017-08-31 03:13:45,0.00,0.07,0.00,23.83,28.02,30.78,13.70,43.97,1005.36,2029.99,3555.97,3059.00,3502.98,600.27,587.97,10.70,0000 0000 0000 0000 000000
2017-08-31 03:18:46,0.00,0.07,0.00,23.83,28.01,30.78,13.70,43.89,1005.35,2029.99,3555.86,3059.00,3502.96,599.81,587.59,10.75,0000 0000 0000 0000 000000
2017-08-31 03:23:47,0.00,0.07,0.00,23.83,28.00,30.74,13.70,43.82,1005.38,2029.99,3555.85,3059.00,3502.96,599.95,587.69,10.80,0000 0000 0000 0000 000000
2017-08-31 03:28:49,0.00,0.07,0.00,23.82,28.00,30.77,13.69,43.80,1005.38,2030.00,3555.72,3059.00,3502.95,599.97,587.81,10.85,0000 0000 0000 0000 000000
2017-08-31 03:33:50,0.00,0.07,0.00,23.83,28.00,30.76,13.79,44.04,1005.37,2030.00,3555.79,3059.00,3502.98,600.45,588.21,10.90,0000 0000 0000 0000 000000
2017-08-31 03:38:51,0.01,0.07,0.00,23.84,28.00,30.74,13.72,44.11,1005.32,2030.01,3555.54,3059.00,3502.90,600.13,587.87,10.95,0000 0000 0000 0000 000000
2017-08-31 03:43:52,0.01,0.07,0.00,23.85,28.00,30.72,13.73,44.08,1005.30,2030.00,3555.11,3058.99,3502.61,599.91,587.62,11.00,0000 0000 0000 0000 000000
2017-08-31 03:48:54,0.00,0.07,0.00,23.84,27.99,30.80,13.71,43.93,1005.35,2030.01,3555.01,3058.98,3502.24,599.68,587.58,11.05,0000 0000 0000 0000 000000
2017-08-31 03:53:55,0.00,0.07,0.00,23.83,27.98,30.77,13.76,43.98,1005.38,2030.00,3555.00,3058.98,3502.05,599.88,587.70,11.10,0000 0000 0000 0000 000000
2017-08-31 03:58:56,-0.00,0.07,0.00,23.84,27.97,30.70,13.79,44.38,1005.38,2030.03,3555.00,3058.98,3502.12,600.93,588.58,11.15,0000 0000 0000 0000 000000
2017-08-31 04:03:57,0.00,0.07,0.00,23.85,27.97,30.70,13.70,44.48,1005.39,2030.03,3554.99,3058.96,3502.01,599.33,587.07,11.20,0000 0000 0000 0000 000000
2017-08-31 04:08:59,0.00,0.07,0.00,23.85,27.97,30.72,13.82,44.33,1005.39,2030.02,3554.98,3058.87,3502.00,599.87,587.58,11.25,0000 0000 0000 0000 000000
2017-08-31 04:14:00,-0.00,0.07,0.00,23.86,27.97,30.69,13.73,44.11,1005.39,2030.03,3554.99,3058.93,3502.01,599.92,587.83,11.30,0000 0000 0000 0000 000000
2017-08-31 04:19:01,0.00,0.07,0.00,23.87,27.97,30.70,13.67,43.92,1005.40,2030.03,3554.95,3058.85,3502.00,599.99,587.72,11.35,0000 0000 0000 0000 000000
2017-08-31 04:24:02,0.00,0.07,0.00,23.77,27.97,30.67,13.71,44.13,1005.62,2030.03,3554.88,3058.80,3502.00,600.18,588.36,11.40,0000 0000 0000 0000 000000
2017-08-31 04:29:04,0.01,0.07,0.00,23.68,27.96,30.74,13.75,44.13,1005.81,2030.09,3554.70,3058.77,3502.00,599.86,588.02,11.45,0000 0000 0000 0000 000000
2017-08-31 04:34:05,0.02,0.07,0.00,23.65,27.95,30.81,13.78,44.02,1005.87,2030.27,3554.54,3058.89,3502.00,600.01,588.66,11.50,0000 0000 0000 0000 000000
2017-08-31 04:39:06,0.04,0.08,0.00,23.58,27.92,30.80,13.72,43.98,1005.87,2030.82,3554.78,3058.98,3502.01,600.21,588.84,11.56,0000 0000 0000 0000 000000
2017-08-31 04:44:07,0.00,0.08,0.00,23.52,27.89,30.81,13.81,44.13,1005.89,2030.97,3554.89,3058.99,3502.05,599.76,588.59,11.61,0000 0000 0000 0000 000000
2017-08-31 04:49:09,-0.00,0.08,0.00,23.48,27.85,30.75,13.73,43.88,1005.93,2030.99,3554.98,3059.01,3502.54,599.66,588.45,11.66,0000 0000 0000 0000 000000
2017-08-31 04:54:10,-0.01,0.08,0.00,23.45,27.81,30.65,13.78,43.83,1006.03,2031.00,3554.98,3059.06,3502.87,599.61,588.66,11.71,0000 0000 0000 0000 000000
2017-08-31 04:59:11,-0.01,0.08,0.00,23.42,27.77,30.57,13.81,44.13,1006.07,2031.02,3554.99,3059.36,3502.98,599.93,588.95,11.76,0000 0000 0000 0000 000000
2017-08-31 05:04:13,0.04,0.08,0.00,23.40,27.72,30.50,13.82,43.97,1005.99,2031.42,3555.03,3059.91,3503.00,600.52,589.40,11.81,0000 0000 0000 0000 000000
2017-08-31 05:09:14,0.03,0.08,0.00,23.63,27.68,30.46,13.77,43.86,1006.11,2031.92,3555.13,3059.99,3503.08,599.93,588.66,11.86,0000 0000 0000 0000 000000
2017-08-31 05:14:16,-0.01,0.08,0.00,23.84,27.65,30.33,13.75,43.83,1006.04,2031.99,3555.75,3059.99,3503.49,600.05,588.21,11.91,0000 0000 0000 0000 000000
2017-08-31 05:19:17,0.01,0.08,0.00,23.90,27.62,30.32,13.72,43.88,1006.04,2031.99,3555.50,3059.99,3503.36,599.77,587.83,11.96,0000 0000 0000 0000 000000
2017-08-31 05:24:18,-0.01,0.08,0.00,24.47,27.62,30.28,13.54,43.60,1006.00,2031.99,3555.79,3059.99,3503.36,599.41,586.29,12.01,0000 0000 0000 0000 000000
2017-08-31 05:29:19,0.01,0.08,0.00,24.38,27.62,30.19,13.62,43.92,1005.92,2031.99,3555.58,3060.00,3503.13,600.41,587.24,12.06,0000 0000 0000 0000 000000
2017-08-31 05:34:20,0.00,0.08,0.00,24.18,27.62,30.11,13.64,43.68,1005.90,2031.99,3555.18,3060.00,3503.00,599.72,587.18,12.11,0000 0000 0000 0000 000000
2017-08-31 05:39:21,0.00,0.08,0.00,24.11,27.64,30.11,13.69,43.65,1005.89,2031.99,3555.04,3060.00,3503.00,600.04,587.70,12.16,0000 0000 0000 0000 000000
2017-08-31 05:44:23,0.00,0.08,0.00,24.09,27.65,30.15,13.63,43.61,1005.88,2031.99,3555.00,3059.96,3503.00,599.99,587.65,12.21,0000 0000 0000 0000 000000
2017-08-31 05:49:24,0.01,0.08,0.00,24.10,27.67,30.20,13.63,43.66,1005.87,2031.98,3554.99,3059.68,3502.93,599.83,587.52,12.26,0000 0000 0000 0000 000000
2017-08-31 05:54:25,0.01,0.08,0.00,24.09,27.67,30.23,13.68,43.67,1005.84,2031.99,3554.98,3059.47,3502.88,599.85,587.41,12.31,0000 0000 0000 0000 000000
2017-08-31 05:59:26,0.01,0.08,0.00,24.07,27.68,30.24,13.63,43.70,1005.73,2031.99,3554.93,3059.26,3502.70,599.80,587.30,12.36,0000 0000 0000 0000 000000
2017-08-31 06:04:28,0.01,0.08,0.00,24.08,27.69,30.26,13.73,43.92,1005.62,2031.99,3554.71,3059.11,3502.37,600.04,587.44,12.41,0000 0000 0000 0000 000000
2017-08-31 06:09:29,0.01,0.08,0.00,24.10,27.70,30.27,13.65,43.73,1005.70,2031.99,3554.21,3059.03,3502.05,600.02,587.48,12.46,0000 0000 0000 0000 000000
2017-08-31 06:14:30,0.00,0.08,0.00,24.09,27.70,30.28,13.67,43.92,1005.55,2031.98,3554.03,3059.00,3502.00,599.83,587.22,12.51,0000 0000 0000 0000 000000
2017-08-31 06:19:31,0.00,0.08,0.00,24.12,27.70,30.29,13.65,43.82,1005.76,2031.99,3554.00,3059.00,3502.00,599.77,587.22,12.56,0000 0000 0000 0000 000000
2017-08-31 06:24:33,0.00,0.08,0.00,24.12,27.70,30.29,13.67,43.79,1005.79,2031.99,3554.00,3059.00,3502.00,600.33,587.69,12.61,0000 0000 0000 0000 000000
2017-08-31 06:29:34,0.00,0.08,0.00,24.13,27.70,30.27,13.68,43.77,1005.86,2031.99,3554.00,3059.00,3502.00,599.91,587.35,12.66,0000 0000 0000 0000 000000
2017-08-31 06:34:35,0.00,0.08,0.00,24.14,27.70,30.25,13.63,43.54,1005.87,2031.98,3553.95,3058.99,3501.96,599.81,587.30,12.71,0000 0000 0000 0000 000000
2017-08-31 06:39:36,0.00,0.08,0.00,24.13,27.70,30.25,13.61,43.70,1005.89,2031.99,3553.89,3058.98,3501.96,599.75,587.26,12.76,0000 0000 0000 0000 000000
2017-08-31 06:44:38,0.00,0.08,0.00,24.12,27.70,30.23,13.65,43.63,1005.91,2031.99,3553.79,3058.98,3501.86,599.67,587.29,12.81,0000 0000 0000 0000 000000
2017-08-31 06:49:39,0.01,0.08,0.00,24.13,27.70,30.22,13.67,43.71,1006.23,2031.99,3553.56,3058.95,3501.49,599.78,587.63,12.86,0000 0000 0000 0000 000000
2017-08-31 06:54:40,0.00,0.08,0.00,24.17,27.70,30.22,13.64,43.63,1006.32,2031.99,3553.26,3058.89,3501.21,599.67,587.32,12.91,0000 0000 0000 0000 000000
2017-08-31 06:59:42,0.00,0.08,0.00,24.16,27.70,30.23,13.67,43.58,1006.36,2031.99,3553.17,3058.84,3501.12,599.85,587.60,12.96,0000 0000 0000 0000 000000
2017-08-31 07:04:43,0.00,0.08,0.00,24.16,27.70,30.22,13.68,43.64,1006.36,2031.99,3553.09,3058.70,3501.04,600.44,588.16,13.01,0000 0000 0000 0000 000000
2017-08-31 07:09:44,0.01,0.08,0.00,24.16,27.71,30.21,13.65,43.34,1006.41,2031.99,3553.01,3058.28,3501.00,600.28,587.96,13.06,0000 0000 0000 0000 000000
2017-08-31 07:14:46,0.00,0.08,0.00,24.18,27.71,30.20,13.63,43.50,1006.44,2031.98,3553.00,3058.18,3501.00,599.51,587.26,13.11,0000 0000 0000 0000 000000
2017-08-31 07:19:47,0.00,0.08,0.00,24.20,27.72,30.21,13.69,43.67,1006.52,2031.97,3553.00,3058.02,3500.99,599.60,587.33,13.16,0000 0000 0000 0000 000000
2017-08-31 07:24:48,0.00,0.08,0.00,24.22,27.72,30.21,13.71,43.62,1006.66,2031.98,3552.97,3058.01,3500.96,600.33,587.94,13.21,0000 0000 0000 0000 000000
2017-08-31 07:29:49,-0.00,0.08,0.00,24.23,27.72,30.21,13.60,43.74,1006.78,2031.98,3552.93,3058.00,3500.95,599.54,587.21,13.26,0000 0000 0000 0000 000000
2017-08-31 07:34:51,0.00,0.08,0.00,24.23,27.72,30.21,13.67,43.64,1006.81,2031.95,3552.68,3058.00,3500.82,599.59,587.45,13.31,0000 0000 0000 0000 000000
2017-08-31 07:39:52,0.01,0.08,0.00,24.26,27.73,30.21,13.67,43.54,1006.82,2031.96,3552.46,3058.00,3500.62,600.06,587.91,13.36,0000 0000 0000 0000 000000
2017-08-31 07:44:53,0.01,0.09,0.00,24.29,27.75,30.22,13.63,43.60,1006.81,2031.94,3552.11,3057.99,3500.12,599.74,587.49,13.41,0000 0000 0000 0000 000000
2017-08-31 07:49:54,0.00,0.09,0.00,24.31,27.75,30.21,13.64,43.48,1006.85,2031.96,3552.01,3057.97,3500.03,600.04,587.65,13.46,0000 0000 0000 0000 000000
2017-08-31 07:54:56,0.00,0.09,0.00,24.30,27.75,30.21,13.76,43.55,1006.85,2031.95,3552.00,3057.92,3500.00,600.13,587.79,13.51,0000 0000 0000 0000 000000
2017-08-31 07:59:57,0.01,0.09,0.00,24.29,27.75,30.22,13.71,43.56,1006.85,2031.92,3552.00,3057.67,3500.00,600.10,587.88,13.56,0000 0000 0000 0000 000000
2017-08-31 08:04:58,0.00,0.09,0.00,24.29,27.77,30.22,13.69,43.42,1006.85,2031.92,3551.99,3057.35,3500.00,600.00,587.82,13.61,0000 0000 0000 0000 000000
2017-08-31 08:09:59,-0.00,0.09,0.00,24.32,27.77,30.23,13.67,43.64,1006.85,2031.84,3551.99,3057.17,3499.99,599.95,587.69,13.66,0000 0000 0000 0000 000000
2017-08-31 08:15:00,-0.02,0.09,0.00,24.32,27.77,30.23,13.64,43.38,1006.86,2031.52,3551.61,3057.02,3499.84,600.09,587.79,13.71,0000 0000 0000 0000 000000
2017-08-31 08:20:02,0.03,0.09,0.00,24.31,27.78,30.24,13.72,43.45,1006.90,2031.62,3551.24,3057.01,3499.63,600.19,587.92,13.76,0000 0000 0000 0000 000000
2017-08-31 08:25:03,-0.00,0.09,0.00,24.32,27.80,30.25,13.70,43.37,1007.03,2031.54,3551.07,3057.00,3499.29,600.16,587.94,13.81,0000 0000 0000 0000 000000
2017-08-31 08:30:05,-0.00,0.09,0.00,24.33,27.80,30.25,13.70,43.61,1007.30,2031.58,3551.02,3057.00,3499.10,599.98,587.94,13.86,0000 0000 0000 0000 000000
2017-08-31 08:35:06,-0.01,0.09,0.00,24.34,27.80,30.26,13.73,43.48,1007.34,2031.40,3551.00,3057.00,3499.02,600.05,587.83,13.92,0000 0000 0000 0000 000000
2017-08-31 08:40:07,-0.02,0.09,0.00,24.36,27.80,30.26,13.65,43.31,1007.34,2031.24,3550.98,3056.99,3499.00,600.08,587.89,13.97,0000 0000 0000 0000 000000
2017-08-31 08:45:09,0.00,0.09,0.00,24.36,27.81,30.25,13.68,43.38,1007.35,2031.18,3550.96,3056.97,3499.00,599.89,587.84,14.02,0000 0000 0000 0000 000000
2017-08-31 08:50:10,0.00,0.09,0.00,24.34,27.82,30.27,13.71,43.55,1007.35,2031.13,3550.77,3056.89,3498.99,600.34,588.19,14.07,0000 0000 0000 0000 000000
2017-08-31 08:55:11,0.01,0.09,0.00,24.34,27.82,30.27,13.67,43.38,1007.36,2031.03,3550.19,3056.52,3498.94,599.85,587.84,14.12,0000 0000 0000 0000 000000
2017-08-31 09:00:13,0.00,0.09,0.00,24.33,27.82,30.28,13.73,43.39,1007.35,2031.05,3550.05,3056.45,3498.86,600.40,588.22,14.17,0000 0000 0000 0000 000000
2017-08-31 09:05:14,0.01,0.09,0.00,24.36,27.82,30.29,13.60,43.27,1007.35,2031.14,3550.02,3056.36,3498.78,600.02,588.13,14.22,0000 0000 0000 0000 000000
2017-08-31 09:10:15,0.00,0.09,0.00,24.37,27.84,30.29,13.70,43.48,1007.35,2031.06,3550.01,3056.07,3498.26,600.65,588.40,14.27,0000 0000 0000 0000 000000
2017-08-31 09:15:16,0.01,0.09,0.00,24.35,27.85,30.28,13.70,43.25,1007.35,2031.05,3550.00,3056.04,3498.11,600.14,588.10,14.32,0000 0000 0000 0000 000000
2017-08-31 09:20:18,-0.00,0.09,0.00,24.35,27.85,30.29,13.71,43.38,1007.35,2031.05,3549.98,3056.03,3498.03,599.90,587.91,14.37,0000 0000 0000 0000 000000
2017-08-31 09:25:19,0.01,0.09,0.00,24.37,27.85,30.29,13.68,43.28,1007.48,2031.08,3549.85,3056.01,3498.02,600.20,588.10,14.42,0000 0000 0000 0000 000000
2017-08-31 09:30:20,0.01,0.09,0.00,24.39,27.85,30.29,13.62,43.25,1007.74,2031.11,3549.37,3056.00,3498.00,599.67,587.72,14.47,0000 0000 0000 0000 000000
2017-08-31 09:35:21,0.01,0.09,0.00,24.39,27.85,30.30,13.77,43.30,1007.76,2031.15,3549.08,3056.00,3498.00,600.28,588.31,14.52,0000 0000 0000 0000 000000
2017-08-31 09:40:23,-0.01,0.09,0.00,24.42,27.87,30.32,13.68,43.41,1007.65,2031.09,3549.01,3056.00,3497.98,600.23,588.22,14.57,0000 0000 0000 0000 000000
2017-08-31 09:45:24,-0.00,0.09,0.00,24.41,27.87,30.31,13.66,43.22,1007.78,2031.07,3549.01,3056.00,3497.95,599.89,587.82,14.62,0000 0000 0000 0000 000000
2017-08-31 09:50:25,0.00,0.09,0.00,24.40,27.87,30.30,13.63,43.33,1007.82,2031.04,3549.00,3055.99,3497.90,599.91,588.08,14.67,0000 0000 0000 0000 000000
2017-08-31 09:55:27,0.00,0.09,0.00,24.42,27.87,30.30,13.66,43.17,1007.83,2031.03,3548.99,3055.98,3497.58,600.10,588.10,14.72,0000 0000 0000 0000 000000
2017-08-31 10:00:28,0.00,0.09,0.00,24.43,27.88,30.31,13.64,43.17,1007.84,2031.02,3548.98,3055.92,3497.17,599.82,587.86,14.77,0000 0000 0000 0000 000000
2017-08-31 10:05:29,0.00,0.09,0.00,24.42,27.89,30.32,13.67,43.22,1007.84,2031.03,3548.97,3055.87,3497.09,600.14,588.21,14.82,0000 0000 0000 0000 000000
2017-08-31 10:10:31,-0.00,0.09,0.00,24.44,27.90,30.33,13.72,43.40,1007.84,2031.04,3548.94,3055.79,3497.06,599.91,587.89,14.87,0000 0000 0000 0000 000000
2017-08-31 10:15:32,0.00,0.09,0.00,24.42,27.90,30.32,13.63,43.25,1007.84,2031.03,3548.94,3055.68,3497.03,599.62,587.70,14.92,0000 0000 0000 0000 000000
2017-08-31 10:20:33,0.00,0.09,0.00,24.44,27.90,30.32,13.67,43.27,1007.83,2031.01,3548.88,3055.44,3497.01,599.80,587.74,14.97,0000 0000 0000 0000 000000
2017-08-31 10:25:35,0.00,0.09,0.00,24.44,27.90,30.33,13.69,43.39,1007.81,2031.03,3548.91,3055.54,3497.01,600.11,588.11,15.02,0000 0000 0000 0000 000000
2017-08-31 10:30:36,0.01,0.09,0.00,24.47,27.90,30.34,13.70,43.29,1007.79,2031.01,3548.60,3055.27,3497.00,600.43,588.33,15.07,0000 0000 0000 0000 000000
2017-08-31 10:35:37,0.01,0.09,0.00,24.46,27.91,30.35,13.73,43.29,1007.83,2031.00,3548.26,3055.13,3497.00,600.05,587.92,15.12,0000 0000 0000 0000 000000
2017-08-31 10:40:38,0.00,0.09,0.00,24.47,27.92,30.35,13.65,43.17,1007.83,2031.00,3548.04,3055.03,3497.00,599.75,587.82,15.17,0000 0000 0000 0000 000000
2017-08-31 10:45:40,0.00,0.09,0.00,24.45,27.92,30.34,13.68,43.11,1007.83,2031.00,3548.02,3055.00,3496.98,599.80,587.81,15.22,0000 0000 0000 0000 000000
2017-08-31 10:50:41,0.00,0.09,0.00,24.46,27.92,30.35,13.64,43.04,1007.83,2031.00,3548.00,3055.01,3496.98,599.99,587.93,15.27,0000 0000 0000 0000 000000
2017-08-31 10:55:42,0.00,0.09,0.00,24.47,27.92,30.35,13.67,43.08,1007.83,2031.00,3548.01,3055.01,3496.98,600.13,588.08,15.32,0000 0000 0000 0000 000000
2017-08-31 11:00:44,0.00,0.09,0.00,24.48,27.92,30.34,13.61,43.03,1007.84,2031.00,3548.00,3055.00,3496.90,599.89,587.81,15.37,0000 0000 0000 0000 000000
2017-08-31 11:05:45,0.00,0.09,0.00,24.46,27.92,30.35,13.71,43.26,1007.85,2031.00,3548.00,3055.00,3496.79,600.17,588.21,15.42,0000 0000 0000 0000 000000
2017-08-31 11:10:46,0.01,0.09,0.00,24.45,27.92,30.36,13.68,43.10,1007.97,2031.00,3547.99,3055.00,3496.52,600.13,588.19,15.47,0000 0000 0000 0000 000000
2017-08-31 11:15:48,0.00,0.09,0.00,24.46,27.93,30.35,13.75,43.22,1007.88,2031.00,3547.92,3054.96,3496.14,600.10,587.95,15.52,0000 0000 0000 0000 000000
2017-08-31 11:20:49,-0.00,0.09,0.00,24.47,27.94,30.36,13.68,43.23,1007.83,2031.00,3547.88,3054.97,3496.05,599.78,587.78,15.57,0000 0000 0000 0000 000000
2017-08-31 11:25:51,0.00,0.09,0.00,24.45,27.95,30.35,13.69,43.13,1007.85,2031.00,3547.77,3054.96,3496.01,600.46,588.44,15.62,0000 0000 0000 0000 000000
2017-08-31 11:30:51,-0.00,0.09,0.00,24.46,27.95,30.36,13.71,43.11,1007.84,2031.00,3547.87,3054.96,3496.01,600.07,588.16,15.67,0000 0000 0000 0000 000000
2017-08-31 11:35:53,-0.00,0.09,0.00,24.45,27.95,30.36,13.67,43.27,1007.83,2030.99,3547.69,3054.95,3496.00,600.09,588.03,15.72,0000 0000 0000 0000 000000
2017-08-31 11:40:54,-0.00,0.09,0.00,24.44,27.95,30.38,13.68,43.13,1007.83,2030.99,3547.83,3054.97,3496.01,600.15,588.29,15.77,0000 0000 0000 0000 000000
2017-08-31 11:45:55,0.01,0.09,0.00,24.46,27.95,30.38,13.63,43.13,1007.83,2030.99,3547.37,3054.79,3496.00,599.98,587.88,15.82,0000 0000 0000 0000 000000
2017-08-31 11:50:57,0.00,0.09,0.00,24.48,27.95,30.38,13.63,43.24,1007.84,2030.99,3547.06,3054.67,3496.00,599.88,587.84,15.87,0000 0000 0000 0000 000000
2017-08-31 11:55:58,0.01,0.09,0.00,24.47,27.95,30.38,13.68,43.27,1007.87,2030.99,3547.02,3054.40,3496.00,600.31,588.24,15.92,0000 0000 0000 0000 000000
2017-08-31 12:00:59,0.01,0.09,0.00,24.46,27.95,30.38,13.70,43.28,1008.04,2030.99,3547.00,3054.06,3495.97,599.93,587.98,15.97,0000 0000 0000 0000 000000
2017-08-31 12:06:00,0.02,0.09,0.00,24.48,27.96,30.37,13.69,43.20,1007.92,2030.99,3546.73,3054.02,3495.66,600.01,588.01,16.02,0000 0000 0000 0000 000000
2017-08-31 12:11:01,0.05,0.10,0.00,24.49,27.97,30.38,13.63,43.07,1007.84,2030.99,3545.46,3053.44,3494.74,600.07,587.97,16.07,0000 0000 0000 0000 000000
2017-08-31 12:16:03,0.04,0.10,0.00,24.49,27.97,30.39,13.68,43.08,1007.83,2030.99,3544.08,3052.69,3493.91,600.04,587.98,16.12,0000 0000 0000 0000 000000
2017-08-31 12:21:04,0.04,0.10,0.00,24.50,27.97,30.38,13.63,43.15,1007.83,2030.99,3543.09,3052.02,3493.09,599.82,587.71,16.17,0000 0000 0000 0000 000000
2017-08-31 12:26:05,0.01,0.10,0.00,24.50,27.97,30.38,13.67,43.23,1007.83,2030.99,3542.65,3051.98,3492.98,600.16,588.07,16.22,0000 0000 0000 0000 000000
2017-08-31 12:31:06,0.01,0.10,0.00,24.50,27.97,30.39,13.65,43.23,1007.82,2030.98,3542.07,3051.90,3492.93,600.21,588.14,16.28,0000 0000 0000 0000 000000
2017-08-31 12:36:08,0.00,0.10,0.00,24.52,27.98,30.40,13.69,43.27,1007.75,2030.98,3542.02,3051.78,3492.81,600.07,587.81,16.33,0000 0000 0000 0000 000000
2017-08-31 12:41:09,0.01,0.10,0.00,24.53,27.99,30.40,13.69,43.07,1007.80,2030.97,3542.00,3051.50,3492.43,600.14,588.10,16.38,0000 0000 0000 0000 000000
2017-08-31 12:46:10,0.01,0.10,0.00,24.53,28.00,30.40,13.64,43.09,1007.79,2030.97,3542.00,3051.20,3492.17,599.83,587.70,16.43,0000 0000 0000 0000 000000
2017-08-31 12:51:12,0.00,0.10,0.00,24.51,28.00,30.40,13.72,43.22,1007.78,2030.94,3542.00,3051.08,3492.06,600.03,587.84,16.48,0000 0000 0000 0000 000000
2017-08-31 12:56:13,-0.00,0.10,0.00,24.50,28.00,30.40,13.72,43.17,1007.69,2030.95,3541.99,3051.03,3492.03,600.05,587.73,16.53,0000 0000 0000 0000 000000